[[{"header":{"parameterUnit":"m.s-1","parameterCategory":1,"la1":30.2991,"la2":30.254,"lo1":-89.0895,"lo2":-89.0444,"dy":0.0017,"dx":0.0017,"nx":28,"ny":28,"refTime":"2024-03-07T09:00:00:Z","depth":0,"parameterNumber":2,"parameterNumberName":"U-component_of_WINDS"},"data":[0,0,0,0,0,0,0,0,0,0,0,0,0,0,0,0,0,0,0,0,0,0,0,0,0,0,0,0,0,0,0,0,0,0,0,0,0,0,0,0,0,0,0,0,0,0,0,0,0,0,0,0,0,0,0,0,0,0,-4.4915,-4.4916,0,-4.4995,-4.4996,-4.4997,-4.494,-4.4937,-4.4934,-4.4932,-4.5013,-4.5017,-4.5021,0,0,0,0,0,0,0,0,0,0,0,0,0,-4.4711,-4.4715,-4.4915,-4.4916,-4.4917,-4.4995,-4.4996,-4.4997,-4.494,-4.4937,-4.4934,-4.4931,-4.5011,-4.5016,-4.5022,0,0,0,0,0,0,0,0,0,0,0,0,0,-4.4796,-4.4716,-4.4915,-4.4898,-4.4897,-4.4995,-4.4996,-4.4997,-4.4941,-4.4937,-4.4933,-4.4929,-4.5009,-4.5016,-4.5023,-4.5141,0,0,-4.5043,-4.5046,0,0,0,0,0,0,0,0,-4.4791,-4.4804,-4.4899,-4.4899,-4.4898,-4.4953,-4.4954,-4.5046,-4.4942,-4.4924,-4.4932,-4.4928,-4.4996,-4.5004,-4.5027,-4.5145,-4.5148,-4.5044,-4.5048,-4.5051,-4.5053,0,0,0,0,0,0,0,-4.4785,-4.48,-4.4946,-4.4901,-4.49,-4.4886,-4.4894,-4.4971,-4.498,-4.4925,-4.4921,-4.4932,-4.4995,-4.5021,-4.5028,-4.5149,-4.5044,-4.505,-4.5054,-4.5057,-4.5367,-4.5371,0,0,0,0,0,0,-4.4781,-4.4795,-4.4944,-4.4949,-4.4834,-4.4893,-4.4901,-4.494,-4.4979,-4.4982,-4.4935,-4.4929,-4.5011,-4.5021,-4.5031,-4.5171,-4.5051,-4.5057,-4.5061,-4.5363,-4.5368,-4.5373,0,0,0,0,0,0,-4.4777,-4.4795,-4.4941,-4.4871,-4.4889,-4.49,-4.4944,-4.4943,-4.4969,-4.4987,-4.4988,-4.4959,-4.5008,-4.5021,-4.5114,-4.5173,-4.506,-4.5066,-4.5358,-4.5365,-4.5371,-4.5452,0,0,0,0,0,0,-4.4772,-4.4794,-4.4839,-4.4873,-4.4893,-4.5023,-4.4947,-4.4948,-4.4981,-4.4973,-4.501,-4.5012,-4.5006,-4.5104,-4.5121,-4.518,-4.5072,-4.5353,-4.5361,-4.5369,-4.5444,-4.5461,-4.5474,0,0,0,0,0,-4.4764,-4.4859,-4.4842,-4.486,-4.4949,-4.5026,-4.5038,-4.5029,-4.4986,-4.5031,-4.5043,-4.5011,-4.5165,-4.5114,-4.5132,-4.5195,-4.5349,-4.5359,-4.5368,-4.5437,-4.5457,-4.5474,0,0,0,0,0,0,-4.4831,-4.4863,-4.4844,-4.4952,-4.4987,-4.5016,-4.5073,-4.5051,-4.5098,-4.5089,-4.5076,-4.5085,-4.5182,-4.5198,-4.5141,-4.5311,-4.525,-4.5263,-4.5296,-4.5315,-4.533,-4.5323,-4.5077,0,0,0,0,0,-4.4859,-4.4919,-4.4943,-4.5036,-4.5055,-4.5061,-4.5095,-4.5085,-4.5121,-4.5135,-4.5153,-4.5188,-4.5244,-4.5281,-4.5334,-4.5447,-4.5454,-4.5499,-4.5514,-4.5527,-4.5538,-4.5598,-4.5618,-4.5404,-4.5404,-4.5403,0,0,-4.4915,-4.494,-4.4979,-4.505,-4.5076,-4.5138,-4.5074,-4.5142,-4.5188,-4.5145,-4.5233,-4.5248,-4.5286,-4.539,-4.5436,-4.5406,-4.5599,-4.5539,-4.5548,-4.5553,-4.561,-4.563,-4.5648,-4.541,-4.5409,-4.5408,0,0,-4.505,-4.5076,-4.5156,-4.5183,-4.5224,-4.5228,-4.5247,-4.528,-4.5289,-4.5377,-4.5346,-4.54,-4.5497,-4.5525,-4.5553,-4.57,-4.5672,-4.5718,-4.5795,-4.5854,-4.5871,-4.5886,-4.5937,-4.5955,-4.5729,-4.5729,-4.573,0,-4.5115,-4.5208,-4.5199,-4.527,-4.5302,-4.5267,-4.5347,-4.5375,-4.543,-4.5453,-4.5419,-4.554,-4.5563,-4.5672,-4.5708,-4.5732,-4.5752,-4.5712,-4.587,-4.5884,-4.5898,-4.5946,-4.5966,-4.5735,-4.5734,-4.5733,-4.5733,0,-4.5285,-4.535,-4.541,-4.5465,-4.5504,-4.5579,-4.5581,-4.5622,-4.561,-4.5617,-4.5708,-4.5735,-4.5792,-4.5818,-4.5807,-4.5926,-4.5906,-4.5871,-4.5809,-4.5924,-4.5969,-4.5987,-4.5742,-4.574,-4.5738,-4.5737,0,0,-4.5462,-4.5512,-4.5534,-4.5558,-4.5601,-4.565,-4.5725,-4.5781,-4.5815,-4.5856,-4.5916,-4.6,-4.5968,-4.5999,-4.5991,-4.6043,-4.6156,-4.6002,-4.6003,-4.6028,-4.6287,-4.6311,-4.6333,-4.614,-4.6143,-4.6146,-4.6283,0,-4.5597,-4.5726,-4.5721,-4.5841,-4.59,-4.5869,-4.5933,-4.5966,-4.5976,-4.6027,-4.6037,-4.6096,-4.6051,-4.6069,-4.612,-4.6132,-4.6208,-4.6122,-4.6194,-4.6197,-4.6183,-4.6356,-4.6382,-4.651,-4.6301,-4.6304,-4.6306,0,-4.5771,-4.5818,-4.5944,-4.5978,-4.6002,-4.606,-4.6111,-4.6162,-4.6199,-4.6202,-4.6237,-4.6221,-4.6295,-4.6234,-4.6335,-4.6277,-4.6307,-4.6318,-4.6322,-4.6326,-4.6256,-4.6363,-4.6551,-4.6569,-4.6334,-4.6332,-4.633,0,-4.5885,-4.5979,-4.6066,-4.6088,-4.6131,-4.6172,-4.6191,-4.6225,-4.6259,-4.6304,-4.6326,-4.638,-4.6408,-4.645,-4.6449,-4.6404,-4.6551,-4.6489,-4.6554,-4.6555,-4.6584,-4.6582,-4.6777,-4.6608,-4.6608,-4.6608,-4.6607,0,-4.6035,-4.6113,-4.6118,-4.6171,-4.6257,-4.6251,-4.6337,-4.6352,-4.6382,-4.6437,-4.6415,-4.6467,-4.6463,-4.6516,-4.6516,-4.6599,-4.6613,-4.6617,-4.6615,-4.6618,-4.6617,-4.6635,-4.6625,-4.6613,-4.6611,-4.661,-4.661,0,-4.6175,-4.6182,-4.6274,-4.6307,-4.6318,-4.6379,-4.6407,-4.6458,-4.6466,-4.6537,-4.6553,-4.6566,-4.6627,-4.6631,-4.6702,-4.6701,-4.6802,-4.6792,-4.6789,-4.6786,-4.685,-4.6844,-4.7062,-4.7089,-4.6905,-4.6907,-4.6908,0,-4.6268,-4.6328,-4.6367,-4.6403,-4.6425,-4.6483,-4.6518,-4.6516,-4.6553,-4.66,-4.6645,-4.6704,-4.6751,-4.685,-4.6866,-4.692,-4.6909,-4.6982,-4.6917,-4.6917,-4.6907,-4.6903,-4.6908,-4.6994,-4.6996,-4.6997,-4.6999,0,-4.6434,-4.6434,-4.6486,-4.654,-4.6582,-4.6624,-4.6663,-4.6694,-4.6695,-4.6739,-4.6801,-4.6838,-4.6911,-4.6969,-4.7022,-4.7042,-4.702,-4.702,-4.7037,-4.7038,-4.7033,-4.7035,-4.6821,-4.7014,-4.7012,-4.7011,-4.701,-4.701,-4.6552,-4.6602,-4.6638,-4.6697,-4.6726,-4.6763,-4.6812,-4.6827,-4.688,-4.6938,-4.6934,-4.7003,-4.7039,-4.7108,-4.7132,-4.7186,-4.716,-4.7186,-4.7192,-4.7198,-4.7204,-4.7028,-4.7196,-4.7195,-4.7195,-4.7194,-4.7194,0,-4.6714,-4.6736,-4.679,-4.6845,-4.6891,-4.6869,-4.6911,-4.6951,-4.7012,-4.7048,-4.7095,-4.7167,-4.7224,-4.7245,-4.73,-4.7339,-4.7331,-4.7353,-4.7349,-4.7354,-4.7224,-4.7202,-4.7359,-4.7359,-4.7359,-4.7359,-4.7359,-4.7359,-4.6803,-4.6887,-4.6893,-4.6991,-4.7013,-4.7081,-4.7106,-4.714,-4.7169,-4.725,-4.7298,-4.7311,-4.7341,-4.7398,-4.745,-4.7454,-4.7475,-4.7501,-4.7502,-4.738,-4.7363,-4.7347,-4.7326,-4.7507,-4.7507,-4.7626,-4.7627,-4.7628]},{"header":{"parameterUnit":"m.s-1","parameterCategory":1,"la1":30.2991,"la2":30.254,"lo1":-89.0895,"lo2":-89.0444,"dy":0.0017,"dx":0.0017,"nx":28,"ny":28,"refTime":"2024-03-07T09:00:00:Z","depth":0,"parameterNumber":3,"parameterNumberName":"V-component_of_WINDS"},"data":[0,0,0,0,0,0,0,0,0,0,0,0,0,0,0,0,0,0,0,0,0,0,0,0,0,0,0,0,0,0,0,0,0,0,0,0,0,0,0,0,0,0,0,0,0,0,0,0,0,0,0,0,0,0,0,0,0,0,2.2757,2.2758,0,2.2833,2.2834,2.2834,2.283,2.2829,2.2828,2.2827,2.2901,2.2904,2.2906,0,0,0,0,0,0,0,0,0,0,0,0,0,2.2608,2.261,2.2757,2.2758,2.2759,2.2833,2.2834,2.2835,2.2831,2.2829,2.2828,2.2827,2.29,2.2903,2.2907,0,0,0,0,0,0,0,0,0,0,0,0,0,2.2677,2.2611,2.2757,2.2766,2.2768,2.2832,2.2834,2.2835,2.2831,2.2829,2.2828,2.2826,2.2899,2.2903,2.2907,2.2967,0,0,2.2921,2.2923,0,0,0,0,0,0,0,0,2.2673,2.2682,2.2764,2.2766,2.2767,2.2821,2.2808,2.2879,2.2831,2.2807,2.2827,2.2825,2.2875,2.2881,2.2899,2.297,2.2973,2.2921,2.2924,2.2926,2.2927,0,0,0,0,0,0,0,2.2668,2.2679,2.2787,2.2765,2.2767,2.2766,2.2774,2.2821,2.2849,2.2809,2.2809,2.2818,2.2876,2.2895,2.2901,2.2974,2.2921,2.2925,2.2928,2.2929,2.31,2.3102,0,0,0,0,0,0,2.2662,2.2675,2.2785,2.2789,2.2715,2.277,2.2779,2.2805,2.2848,2.2853,2.2819,2.2817,2.2888,2.2895,2.2903,2.2977,2.2926,2.293,2.2932,2.3099,2.3101,2.3103,0,0,0,0,0,0,2.2658,2.2671,2.2781,2.2732,2.2746,2.2774,2.2804,2.2807,2.2826,2.2856,2.2861,2.2834,2.2887,2.2897,2.2952,2.298,2.2932,2.2936,2.3096,2.3099,2.3102,2.3125,0,0,0,0,0,0,2.2654,2.267,2.2694,2.2733,2.2749,2.283,2.2805,2.281,2.2834,2.2833,2.2871,2.2876,2.2886,2.2945,2.2956,2.2985,2.2939,2.3094,2.3098,2.3101,2.3122,2.3128,2.3134,0,0,0,0,0,2.2649,2.2696,2.2695,2.2708,2.2779,2.2831,2.284,2.2853,2.2837,2.286,2.288,2.2875,2.2975,2.2951,2.2963,2.2994,2.3092,2.3097,2.3101,2.3119,2.3127,2.3134,0,0,0,0,0,0,2.2657,2.2701,2.27,2.2762,2.2793,2.283,2.286,2.286,2.2896,2.2892,2.2905,2.2914,2.2969,2.2987,2.2959,2.3055,2.3031,2.3038,2.3041,2.3049,2.3055,2.3049,2.2943,0,0,0,0,0,2.2667,2.2707,2.2742,2.2793,2.2809,2.2832,2.2855,2.2863,2.2895,2.2908,2.2931,2.2962,2.3001,2.3025,2.3062,2.3124,2.3133,2.3151,2.3157,2.3162,2.3168,2.3204,2.3213,2.3117,2.3117,2.3117,0,0,2.2686,2.2715,2.2739,2.2795,2.282,2.2861,2.2843,2.2886,2.2917,2.2914,2.2968,2.2986,2.3021,2.3081,2.3108,2.3097,2.3197,2.3168,2.3171,2.3175,2.3209,2.3218,2.3226,2.312,2.3119,2.3119,0,0,2.2742,2.2767,2.2813,2.2839,2.2879,2.2894,2.2905,2.2943,2.2956,2.3011,2.301,2.3046,2.3111,2.3137,2.3159,2.3227,2.3224,2.3238,2.327,2.3304,2.3312,2.3318,2.3344,2.3353,2.3244,2.3244,2.3244,0,2.276,2.2823,2.2836,2.2881,2.2907,2.2908,2.2954,2.2979,2.3027,2.3044,2.3032,2.3116,2.314,2.3206,2.3223,2.324,2.3253,2.3234,2.331,2.3317,2.3323,2.3347,2.3357,2.3246,2.3246,2.3245,2.3245,0,2.2844,2.2888,2.292,2.2969,2.2998,2.3043,2.3064,2.3091,2.3096,2.3113,2.3169,2.3198,2.3242,2.3258,2.3262,2.3325,2.3317,2.3307,2.3284,2.3334,2.3357,2.3366,2.3248,2.3248,2.3247,2.3247,0,0,2.2907,2.2965,2.2976,2.3,2.3044,2.3077,2.3123,2.3167,2.3191,2.3225,2.3264,2.332,2.3312,2.3337,2.3344,2.3374,2.3428,2.3361,2.3362,2.3373,2.3501,2.3509,2.3519,2.3426,2.3428,2.343,2.3498,0,2.2968,2.3051,2.3065,2.3137,2.3178,2.3181,2.3221,2.3252,2.3269,2.3305,2.3324,2.3365,2.335,2.3365,2.3395,2.3415,2.3454,2.341,2.3463,2.3464,2.3455,2.3531,2.354,2.3603,2.3507,2.3509,2.351,0,2.305,2.3089,2.3166,2.3206,2.3224,2.326,2.3303,2.3338,2.3373,2.3383,2.3412,2.3417,2.3464,2.3439,2.3505,2.3475,2.3497,2.351,2.3513,2.3519,2.349,2.354,2.3623,2.3633,2.3524,2.3523,2.3522,0,2.309,2.3161,2.3216,2.3236,2.3284,2.3309,2.333,2.3365,2.3391,2.3428,2.3446,2.3487,2.351,2.3542,2.3557,2.3537,2.3622,2.3598,2.3632,2.3632,2.365,2.3649,2.3739,2.3663,2.3663,2.3663,2.3663,0,2.3158,2.3205,2.3235,2.3269,2.3322,2.3339,2.339,2.3411,2.3442,2.348,2.3483,2.3518,2.3536,2.3574,2.3586,2.364,2.365,2.3659,2.3662,2.366,2.3659,2.3675,2.3671,2.3665,2.3665,2.3664,2.3664,0,2.3211,2.3233,2.3294,2.3336,2.3347,2.3385,2.342,2.3453,2.3471,2.3519,2.3531,2.3558,2.3604,2.3622,2.3677,2.3685,2.3747,2.3745,2.3735,2.3736,2.377,2.3767,2.3874,2.389,2.3803,2.3803,2.3804,0,2.3253,2.329,2.3336,2.3363,2.3385,2.3428,2.3456,2.3473,2.3502,2.3546,2.3574,2.362,2.3657,2.3729,2.3753,2.3795,2.3796,2.3831,2.3802,2.3799,2.3798,2.3796,2.38,2.3836,2.3837,2.3837,2.3838,0,2.3326,2.3336,2.3376,2.3421,2.3455,2.3491,2.3526,2.3547,2.357,2.3602,2.3649,2.3679,2.3736,2.3781,2.3825,2.3846,2.3846,2.3847,2.3857,2.3856,2.3849,2.3854,2.3751,2.3844,2.3844,2.3843,2.3843,2.3843,2.3375,2.3409,2.3448,2.3493,2.3522,2.3555,2.3589,2.3612,2.3652,2.3702,2.3709,2.376,2.3796,2.3855,2.3878,2.3918,2.3909,2.3923,2.3927,2.3931,2.3934,2.3842,2.3925,2.3925,2.3925,2.3925,2.3925,0,2.345,2.3475,2.3517,2.3567,2.3603,2.3602,2.3641,2.3671,2.3717,2.3751,2.3788,2.3843,2.3888,2.3916,2.3961,2.3987,2.3989,2.3999,2.3997,2.4002,2.3938,2.3926,2.3997,2.3997,2.3997,2.3997,2.3997,2.3997,2.3492,2.355,2.3565,2.3636,2.3661,2.3713,2.3735,2.3766,2.3794,2.3856,2.3893,2.3912,2.3944,2.3992,2.4033,2.404,2.4056,2.4067,2.4074,2.4014,2.4006,2.3999,2.3987,2.4071,2.4071,2.4135,2.4135,2.4136]}]]